Location: Staunton
(38.1490°N, 79.0720°W)
Time: 14:55:53

ISS - Pass Details

Date: 14 March 2018
Orbit: 403 x 406 km, 51.6° (Epoch: 23 March)

Event Time Altitude Azimuth Distance (km) Brightness Sun altitude
Exits shadow 06:30:12 - 325° (NW) 1,939 -0.7 -12.4°
Reaches altitude 10° 06:31:40 10° 339° (NNW) 1,465 -1.2 -12.1°
Maximum altitude 06:34:01 18° 25° (NNE) 1,077 -1.3 -11.6°
Drops below altitude 10° 06:36:21 10° 70° (ENE) 1,459 0.4 -11.2°
Sets 06:38:53 0° 91° (E) 2,316 2.2 -10.7°
